Starlink 5586

operational
NORAD ID: 55376 Int'l Des: 2023-013 Owner: SPXS Country: US Constellation: starlink
LEOCIRCULAR

Starlink 5586について

説明を読み込み中...

リアルタイム位置

3D地球を読み込み中...

次回通過

高度履歴

Altitude vs Time

uPlot chart will show altitude changes over time

軌道要素

1 55376U 23013AX 26061.42468810 -.00000060 00000-0 10626-4 0 9999
2 55376 43.0039 327.0393 0001036 271.0670 89.0054 15.02534920170765
Epoch: Mar 2, 2026 • Age: 25 hours

現在のステータス

高度 559.7 km
速度 7.59 km/s
衛星直下点 27.55°N, 174.37°W
打ち上げ日 Jan 26, 2023
運用期間 3 years
タイプ internet

技術仕様

分類 Payload
質量 305.00 kg
乾燥質量 290.00 kg
総質量 305.00 kg
長さ 0.20 m
直径 2.80 m
スパン 9.00 m
形状 Box + pan
製造者 SPXS
バスタイプ Starlink
フェーズステータス In Orbit
所有者/国 SPXS/US

大規模コンステレーション

Loading constellations...